Content
SEND FEEDBACK

Daily
Averages
Monthly
Summary
United States of America

DEDEDO, GUAM


Home > North America > United States > Guam
Elevation: 111 meters     Latitude: 13 33N     Longitude: 144 49E

WEATHER
 
SELECT A DAY
Number of Records: 209,165;   Date Range: 1/1/95 - 8/30/14
 
SHARE

PRINT THIS DATA

[ ← Previous Day ]
WEATHER ALMANAC - 3 MARCH, 2013
[ Next Day → ]
[ °F ]   °C
Weather ElementAverageHighLow
Temperature27.3 °C30.6 °C (11:54 am)25 °C (4:54 am)
Dewpoint24.1 °C24.7 °C (3:54 pm)23.3 °C (8:54 am)
Humidity83.1 %94 % (4:54 am)68 % (1:54 pm)
Barometer1010.2 hPa1011.5 hPa (11:14 pm)1008.1 hPa (3:54 pm)
Wind Speed15 km/h24.1 km/h (1:54 pm)
Wind Gust31.5 km/h (11:54 am)
Weather ElementAverage
Visibility16.1 km
Wind DirectionENE (83.3 °)

Weather ElementTotal
Precipitation---
Cooling Degree Days9.5 (Base 18.3)
Growing Degree Days17.8 (Base 10)
Averaged from 27 records on 3 March, 2013
WEATHER CONDITIONS BREAKOUT
WIND DIRECTION BREAKOUT
WEATHER BY HOUR - 3 MARCH, 2013
[ °F ]   °C
Local TimeTemperatureDewpointHumidityBarometerVisibilityWind DirectionWind SpeedGust SpeedPrecipitationEventsConditions
1:54 AM25.6 °C24.4 °C93 %1010.2 hPa16.1 kmENE (60°)11.1 km/hOvercast
2:54 AM26.8 °C24.5 °C87 %1009.5 hPa16.1 kmNE (50°)7.4 km/hOvercast
3:54 AM26.5 °C24.4 °C88 %1009.5 hPa16.1 kmENE (70°)9.3 km/hScattered Clouds
4:54 AM25 °C23.9 °C94 %1009.1 hPa16.1 kmEast (80°)11.1 km/hPartly Cloudy
5:54 AM26.2 °C24.4 °C90 %1009.5 hPa16.1 kmEast (100°)13 km/hOvercast
6:54 AM26.3 °C24.1 °C88 %1010.2 hPa16.1 kmEast (90°)13 km/hOvercast
7:54 AM25.6 °C23.9 °C90 %1010.8 hPa16.1 kmEast (90°)13 km/hScattered Clouds
8:54 AM26.7 °C23.3 °C81 %1011.2 hPa16.1 kmEast (80°)16.7 km/hMostly Cloudy
9:54 AM29.6 °C24.2 °C73 %1011.2 hPa16.1 kmEast (100°)16.7 km/hPartly Cloudy
10:54 AM30.4 °C24.1 °C69 %1010.8 hPa16.1 kmEast (80°)18.5 km/hScattered Clouds
11:54 AM30.6 °C24.3 °C69 %1010.5 hPa16.1 kmEast (90°)22.2 km/h31.5 km/hScattered Clouds
12:54 PM29.7 °C23.9 °C71 %1009.5 hPa16.1 kmEast (80°)22.2 km/hScattered Clouds
1:54 PM30.6 °C24.2 °C68 %1008.5 hPa16.1 kmEast (80°)24.1 km/hPartly Cloudy
2:54 PM30 °C24.3 °C71 %1008.5 hPa16.1 kmEast (90°)20.4 km/hPartly Cloudy
3:54 PM30.2 °C24.7 °C72 %1008.1 hPa16.1 kmEast (90°)22.2 km/hScattered Clouds
4:54 PM28.9 °C24.2 °C76 %1008.8 hPa16.1 kmENE (70°)20.4 km/hMostly Cloudy
5:03 PM28 °C24 °C79 %1009.5 hPa16.1 kmEast (90°)20.4 km/hScattered Clouds
5:54 PM28.4 °C24.2 °C78 %1009.1 hPa16.1 kmEast (90°)16.7 km/hClear
6:54 PM26.9 °C24 °C84 %1009.5 hPa16.1 kmEast (80°)13 km/hPartly Cloudy
7:54 PM26.5 °C24 °C86 %1010.2 hPa16.1 kmEast (80°)11.1 km/hPartly Cloudy
8:54 PM25 °C23.9 °C94 %1010.5 hPa16.1 kmEast (80°)11.1 km/hPartly Cloudy
9:54 PM26.5 °C23.8 °C85 %1010.8 hPa16.1 kmEast (80°)11.1 km/hPartly Cloudy
10:54 PM26.4 °C24.1 °C87 %1010.8 hPa16.1 kmEast (90°)13 km/hScattered Clouds
11:14 PM25 °C24 °C94 %1011.5 hPa16.1 kmEast (90°)9.3 km/hMostly Cloudy
11:24 PM25 °C24 °C94 %1011.5 hPa16.1 kmEast (90°)9.3 km/hScattered Clouds
11:43 PM25 °C24 °C94 %1011.5 hPa16.1 kmEast (90°)13 km/hMostly Cloudy
11:54 PM26.6 °C24.4 °C88 %1010.8 hPa16.1 kmEast (90°)13 km/hScattered Clouds
Hourly data recorded from PGUM, located 0 kilometers away from Dededo, Guam







STORIES FROM OUR PARTNERS